QLK321 YSSY-YSCB

Flight info

Callsign QLK321
Flight time N/A
Altitude 16000
Route WOL H65 CB
Aircraft AT76/M-SDFGIRY/S

Departure

Time 2026-05-05 07:05
Airport Sydney Kingsford Smith International Airport (YSSY)

Arrival

Time N/A
Airport Canberra Airport (YSCB)
Time Latitude Longitude Altitude Speed Heading
2026-05-05 06:37 -33.93117 151.18227 27 ft 0 kts 135°
2026-05-05 06:58 -33.93118 151.18227 27 ft 0 kts 135°
2026-05-05 06:58 -33.93119 151.18229 27 ft 0 kts 142°
2026-05-05 06:58 -33.93121 151.18229 27 ft 1 kts 159°
2026-05-05 06:59 -33.93125 151.18224 27 ft 1 kts 216°
2026-05-05 06:59 -33.93124 151.18205 27 ft 6 kts 285°
2026-05-05 06:59 -33.93111 151.18136 27 ft 10 kts 281°
2026-05-05 06:59 -33.93099 151.18045 27 ft 12 kts 278°
2026-05-05 07:00 -33.93084 151.17945 27 ft 13 kts 281°
2026-05-05 07:00 -33.93071 151.17859 27 ft 13 kts 281°
2026-05-05 07:00 -33.93052 151.17750 27 ft 13 kts 289°
2026-05-05 07:00 -33.93019 151.17664 27 ft 10 kts 287°
2026-05-05 07:01 -33.93003 151.17575 27 ft 12 kts 281°
2026-05-05 07:01 -33.92986 151.17474 27 ft 13 kts 281°
2026-05-05 07:01 -33.92971 151.17383 27 ft 8 kts 281°
2026-05-05 07:01 -33.92967 151.17360 27 ft 5 kts 281°
2026-05-05 07:02 -33.92957 151.17303 27 ft 6 kts 281°
2026-05-05 07:02 -33.92957 151.17301 27 ft 0 kts 281°
2026-05-05 07:02 -33.92955 151.17290 27 ft 4 kts 281°
2026-05-05 07:03 -33.92956 151.17242 27 ft 7 kts 255°
2026-05-05 07:03 -33.92983 151.17196 27 ft 6 kts 220°
2026-05-05 07:03 -33.93011 151.17181 27 ft 5 kts 191°
2026-05-05 07:03 -33.93036 151.17185 27 ft 3 kts 168°
2026-05-05 07:04 -33.93059 151.17191 27 ft 14 kts 168°
2026-05-05 07:04 -33.93373 151.17273 25 ft 78 kts 167°
2026-05-05 07:04 -33.94083 151.17460 30 ft 126 kts 167°
2026-05-05 07:04 -33.94965 151.17723 409 ft 135 kts 164°
2026-05-05 07:05 -33.95928 151.18117 659 ft 155 kts 165°
2026-05-05 07:05 -33.96971 151.18007 1214 ft 148 kts 191°
2026-05-05 07:05 -33.97955 151.17817 1834 ft 142 kts 186°
2026-05-05 07:05 -33.98932 151.17714 2467 ft 139 kts 184°
2026-05-05 07:06 -33.99896 151.17638 3059 ft 138 kts 184°
2026-05-05 07:06 -34.00887 151.17577 3286 ft 154 kts 185°
2026-05-05 07:06 -34.02025 151.17508 3490 ft 168 kts 184°
2026-05-05 07:06 -34.03206 151.17491 3882 ft 171 kts 174°
2026-05-05 07:07 -34.04360 151.17869 4207 ft 175 kts 166°
2026-05-05 07:07 -34.05530 151.18327 4580 ft 177 kts 166°
2026-05-05 07:07 -34.06708 151.18783 4963 ft 178 kts 166°
2026-05-05 07:07 -34.07887 151.19231 5333 ft 179 kts 167°
2026-05-05 07:08 -34.09093 151.19659 5692 ft 181 kts 168°
2026-05-05 07:08 -34.10312 151.20075 6067 ft 182 kts 168°
2026-05-05 07:08 -34.11532 151.20486 6410 ft 184 kts 168°
2026-05-05 07:08 -34.12777 151.20895 6753 ft 186 kts 167°
2026-05-05 07:09 -34.14014 151.21301 7099 ft 186 kts 167°
2026-05-05 07:09 -34.15265 151.21716 7435 ft 188 kts 168°
2026-05-05 07:09 -34.16531 151.22140 7775 ft 188 kts 169°